パンスターズ彗星

C/2017 K2 ( PanSTARRS )

English version
Home page
Updated on September 2, 2023

---------------------------------------------------------------------

・ プロフィール

発見日 2017年5月21日
発見光度 20.8等
発見者 Pan-STARRS 1 telescope (Haleakala)

・ 写真集

・ 軌道要素

Epoch 2023 Sept. 13.0 TT = JDT 2460200.5
T 2022 Dec. 19.68350 TT                                 Rudenko
q   1.7971519            (2000.0)            P               Q
z  -0.0003961      Peri.  236.20346     +0.01816366     +0.04922468
 +/-0.0000003      Node    88.23483     -0.18083975     +0.98247616
e   1.0007118      Incl.   87.56445     -0.98334484     -0.17977076
>From 11820 observations 2013 May 12-2023 Aug. 25, mean residual 1".8.

・ 星図

・ 光度変化

        m1 = 4.0 + 5 logΔ + 7.5 log r          [    ,-100]  (              〜2022年 9月10日)
        m1 = 4.0 + 5 logΔ + 8.5 log r(t + 30)  [-100,    ]  (2022年 9月10日〜              )

---------------------------------------------------------------------

軌道要素はM.P.E.C. 2023-Q150に掲載されたものです。
星図はステラナビゲータ Ver.10 (アストロアーツ) で作成したものです。
光度グラフはComet for Windowsで作成したものです。

---------------------------------------------------------------------

Copyright(C) Seiichi Yoshida (comet@aerith.net). All rights reserved.